Location: Erlenbrunn
(49.1717°N, 7.6142°E)
Time: 12:31:21
(UTC+00:00)

H-2A R/B - Pass Details

Date: 25 November 2020
Orbit: 734 x 836 km, 98.2° (Epoch: 25 January)

Event Time Altitude Azimuth Distance (km) Brightness Sun altitude
Exits shadow 19:02:08 37° 227° (SW) 1,242 3.3 -32.8°
Maximum altitude 19:03:24 43° 262° (W) 1,116 3.1 -33.0°
Drops below altitude 10° 19:08:22 10° 334° (NNW) 2,358 4.8 -33.8°
Sets 19:10:48 0° 341° (NNW) 3,274 5.6 -34.2°
